When you browse on this site, cookies collect data to enhance your experience and personalize the content and advertising you see.
Visit our Privacy Policy to learn more. By continuing to use the site, you agree to this use of cookies and data.
  • en France
  • Liste des pays
  • À 7 jours
  • Température de l'eau
  • Carte satellitaire
  • Carte météo
  • Widgets météo
  • user-avatar
    Se connecter

    Météo par heure à Bukit Fraser

    Ce jour, 21 Juillet, Dimanche

    Heure Température Précipitation Vent Pression Humidité
    00:00 +20°C° 0 mm 0 m/s 679 mmHg 88%
    01:00 +19°C° 0 mm 0 m/s 680 mmHg 89%
    02:00 +19°C° 0 mm 0 m/s 679 mmHg 89%
    03:00 +19°C° 0 mm 0 m/s 679 mmHg 90%
    04:00 +19°C° 0 mm 0 m/s 678 mmHg 90%
    05:00 +19°C° 0 mm 0 m/s 678 mmHg 89%
    06:00 +19°C° 0 mm 0 m/s 679 mmHg 87%
    07:00 +20°C° 0 mm 0 m/s 680 mmHg 85%
    08:00 +22°C° 0 mm 0 m/s 680 mmHg 76%
    09:00 +24°C° 0 mm 0 m/s 681 mmHg 67%
    10:00 +27°C° 0 mm 0 m/s 681 mmHg 58%
    11:00 +29°C° 0.2 mm 1 m/s 681 mmHg 58%
    12:00 +29°C° 0.2 mm 1 m/s 681 mmHg 58%
    13:00 +30°C° 0 mm 1 m/s 681 mmHg 56%
    14:00 +28°C° 1.1 mm 1 m/s 680 mmHg 65%
    15:00 +27°C° 1.1 mm 1 m/s 679 mmHg 74%
    16:00 +26°C° 1.1 mm 1 m/s 679 mmHg 83%
    17:00 +24°C° 0.8 mm 1 m/s 678 mmHg 87%
    18:00 +23°C° 0.8 mm 1 m/s 678 mmHg 90%
    19:00 +20°C° 0.8 mm 0 m/s 678 mmHg 94%
    20:00 +19°C° 0.3 mm 0 m/s 679 mmHg 94%
    21:00 +19°C° 0.3 mm 0 m/s 679 mmHg 94%
    22:00 +19°C° 0.3 mm 0 m/s 679 mmHg 94%
    23:00 +18°C° 0 mm 0 m/s 679 mmHg 94%

    Demain, 22 Juillet, Lundi

    Heure Température Précipitation Vent Pression Humidité
    00:00 +18°C° 0 mm 0 m/s 679 mmHg 94%
    01:00 +18°C° 0 mm 0 m/s 679 mmHg 94%
    02:00 +18°C° 0.6 mm 0 m/s 679 mmHg 94%
    03:00 +18°C° 0.6 mm 0 m/s 678 mmHg 95%
    04:00 +18°C° 0.6 mm 0 m/s 678 mmHg 95%
    05:00 +18°C° 0.6 mm 0 m/s 678 mmHg 95%
    06:00 +18°C° 0.6 mm 0 m/s 679 mmHg 94%
    07:00 +18°C° 0.6 mm 0 m/s 679 mmHg 93%
    08:00 +21°C° 0.3 mm 0 m/s 680 mmHg 84%
    09:00 +23°C° 0.3 mm 0 m/s 681 mmHg 75%
    10:00 +25°C° 0.3 mm 0 m/s 681 mmHg 65%
    11:00 +26°C° 0.6 mm 0 m/s 681 mmHg 65%
    12:00 +26°C° 0.6 mm 0 m/s 681 mmHg 64%
    13:00 +27°C° 0.6 mm 0 m/s 680 mmHg 63%
    14:00 +26°C° 1.2 mm 0 m/s 680 mmHg 68%
    15:00 +25°C° 1.2 mm 0 m/s 679 mmHg 74%
    16:00 +24°C° 1.2 mm 0 m/s 678 mmHg 79%
    17:00 +23°C° 1.1 mm 0 m/s 678 mmHg 82%
    18:00 +21°C° 1.1 mm 0 m/s 678 mmHg 85%
    19:00 +20°C° 1.1 mm 0 m/s 678 mmHg 89%
    20:00 +19°C° 0.6 mm 0 m/s 679 mmHg 90%
    21:00 +19°C° 0.6 mm 0 m/s 679 mmHg 91%
    22:00 +21°C° 0.6 mm 1 m/s 680 mmHg 92%
    23:00 +21°C° 1.1 mm 1 m/s 680 mmHg 94%

    Après-demain, 23 Juillet, Mardi

    Heure Température Précipitation Vent Pression Humidité
    00:00 +21°C° 1.1 mm 1 m/s 680 mmHg 95%
    01:00 +21°C° 1.1 mm 1 m/s 680 mmHg 97%
    02:00 +20°C° 0.5 mm 1 m/s 679 mmHg 97%
    03:00 +18°C° 0.5 mm 0 m/s 679 mmHg 96%
    04:00 +18°C° 0.5 mm 0 m/s 679 mmHg 96%
    05:00 +18°C° 0.1 mm 0 m/s 679 mmHg 95%
    06:00 +18°C° 0.1 mm 0 m/s 679 mmHg 95%
    07:00 +18°C° 0.1 mm 0 m/s 679 mmHg 94%
    08:00 +20°C° 0.1 mm 0 m/s 680 mmHg 88%
    09:00 +21°C° 0.1 mm 0 m/s 680 mmHg 82%
    10:00 +23°C° 0.1 mm 0 m/s 681 mmHg 77%
    11:00 +25°C° 0.5 mm 1 m/s 681 mmHg 76%
    12:00 +26°C° 0.5 mm 1 m/s 680 mmHg 76%
    13:00 +26°C° 0.5 mm 1 m/s 680 mmHg 75%
    14:00 +26°C° 1.4 mm 1 m/s 680 mmHg 78%
    15:00 +25°C° 1.4 mm 1 m/s 679 mmHg 82%
    16:00 +25°C° 1.4 mm 1 m/s 679 mmHg 85%
    17:00 +23°C° 1.2 mm 1 m/s 679 mmHg 89%
    18:00 +22°C° 1.2 mm 1 m/s 679 mmHg 92%
    19:00 +21°C° 1.2 mm 1 m/s 679 mmHg 95%
    20:00 +19°C° 0.5 mm 0 m/s 680 mmHg 95%
    21:00 +19°C° 0.5 mm 0 m/s 680 mmHg 95%
    22:00 +19°C° 0.5 mm 0 m/s 681 mmHg 95%
    23:00 +18°C° 0.7 mm 0 m/s 681 mmHg 95%

    24 Juillet, Mercredi

    Heure Température Précipitation Vent Pression Humidité
    00:00 +18°C° 0.7 mm 0 m/s 681 mmHg 96%
    01:00 +18°C° 0.7 mm 0 m/s 680 mmHg 96%
    02:00 +18°C° 1.4 mm 0 m/s 680 mmHg 96%
    03:00 +17°C° 1.4 mm 0 m/s 680 mmHg 97%
    04:00 +17°C° 1.4 mm 0 m/s 680 mmHg 97%
    05:00 +17°C° 0.3 mm 0 m/s 680 mmHg 97%
    06:00 +17°C° 0.3 mm 0 m/s 680 mmHg 96%
    07:00 +17°C° 0.3 mm 0 m/s 680 mmHg 96%
    08:00 +18°C° 0 mm 0 m/s 681 mmHg 94%
    09:00 +19°C° 0 mm 0 m/s 682 mmHg 92%
    10:00 +20°C° 0 mm 0 m/s 682 mmHg 89%
    11:00 +23°C° 0 mm 1 m/s 682 mmHg 81%
    12:00 +25°C° 0 mm 1 m/s 682 mmHg 73%
    13:00 +26°C° 0 mm 1 m/s 681 mmHg 65%
    14:00 +26°C° 0.3 mm 1 m/s 681 mmHg 68%
    15:00 +26°C° 0.3 mm 1 m/s 680 mmHg 70%
    16:00 +26°C° 0.3 mm 1 m/s 679 mmHg 72%
    17:00 +24°C° 0.3 mm 1 m/s 679 mmHg 78%
    18:00 +23°C° 0.3 mm 1 m/s 679 mmHg 84%
    19:00 +19°C° 0.3 mm 0 m/s 679 mmHg 91%
    20:00 +19°C° 0.1 mm 0 m/s 680 mmHg 91%
    21:00 +19°C° 0.1 mm 0 m/s 681 mmHg 90%
    22:00 +19°C° 0.1 mm 0 m/s 681 mmHg 90%
    23:00 +19°C° 0.2 mm 0 m/s 681 mmHg 90%

    25 Juillet, Jeudi

    Heure Température Précipitation Vent Pression Humidité
    00:00 +19°C° 0.2 mm 0 m/s 681 mmHg 90%
    01:00 +19°C° 0.2 mm 0 m/s 680 mmHg 89%
    02:00 +19°C° 0 mm 0 m/s 680 mmHg 90%
    03:00 +18°C° 0 mm 0 m/s 680 mmHg 90%
    04:00 +18°C° 0 mm 0 m/s 679 mmHg 91%
    05:00 +18°C° 0 mm 0 m/s 680 mmHg 90%
    06:00 +18°C° 0 mm 0 m/s 680 mmHg 90%
    07:00 +19°C° 0 mm 0 m/s 681 mmHg 89%
    08:00 +20°C° 0 mm 0 m/s 681 mmHg 85%
    09:00 +21°C° 0 mm 0 m/s 682 mmHg 81%
    10:00 +22°C° 0 mm 0 m/s 683 mmHg 77%
    11:00 +23°C° 0.8 mm 0 m/s 682 mmHg 76%
    12:00 +24°C° 0.8 mm 0 m/s 682 mmHg 74%
    13:00 +25°C° 0.8 mm 0 m/s 681 mmHg 72%
    14:00 +24°C° 1.9 mm 0 m/s 681 mmHg 76%
    15:00 +24°C° 1.9 mm 0 m/s 680 mmHg 79%
    16:00 +23°C° 1.9 mm 0 m/s 680 mmHg 83%
    17:00 +22°C° 1 mm 0 m/s 680 mmHg 87%
    18:00 +21°C° 1 mm 0 m/s 680 mmHg 90%
    19:00 +19°C° 1 mm 0 m/s 680 mmHg 94%
    20:00 +19°C° 0.1 mm 0 m/s 680 mmHg 94%
    21:00 +19°C° 0.1 mm 0 m/s 680 mmHg 93%
    22:00 +19°C° 0.1 mm 0 m/s 681 mmHg 93%
    23:00 +19°C° 0 mm 0 m/s 680 mmHg 93%

    26 Juillet, Vendredi

    Heure Température Précipitation Vent Pression Humidité
    00:00 +19°C° 0 mm 0 m/s 680 mmHg 92%
    01:00 +19°C° 0 mm 0 m/s 680 mmHg 92%
    02:00 +19°C° 0 mm 0 m/s 680 mmHg 92%
    03:00 +18°C° 0 mm 0 m/s 679 mmHg 91%
    04:00 +18°C° 0 mm 0 m/s 679 mmHg 91%
    05:00 +18°C° 0 mm 0 m/s 679 mmHg 90%
    06:00 +19°C° 0 mm 0 m/s 680 mmHg 90%
    07:00 +19°C° 0 mm 0 m/s 680 mmHg 89%
    08:00 +21°C° 0 mm 0 m/s 681 mmHg 80%
    09:00 +23°C° 0 mm 0 m/s 682 mmHg 70%
    10:00 +26°C° 0 mm 0 m/s 682 mmHg 60%
    11:00 +28°C° 0.2 mm 1 m/s 682 mmHg 59%
    12:00 +28°C° 0.2 mm 1 m/s 682 mmHg 58%
    13:00 +29°C° 0.2 mm 1 m/s 681 mmHg 56%
    14:00 +28°C° 1.1 mm 1 m/s 680 mmHg 66%
    15:00 +26°C° 1.1 mm 1 m/s 680 mmHg 75%
    16:00 +25°C° 1.1 mm 1 m/s 679 mmHg 85%
    17:00 +24°C° 0.8 mm 1 m/s 679 mmHg 87%
    18:00 +21°C° 0.8 mm 0 m/s 679 mmHg 90%
    19:00 +20°C° 0.8 mm 0 m/s 679 mmHg 93%
    20:00 +20°C° 0.6 mm 0 m/s 680 mmHg 93%
    21:00 +19°C° 0.6 mm 0 m/s 680 mmHg 93%
    22:00 +19°C° 0.6 mm 0 m/s 681 mmHg 93%
    23:00 +19°C° 0 mm 0 m/s 680 mmHg 93%
    Voir plus